Year,Month,Day,Hour,Minute,Value (Times are PST for temperature in C)
2018,06,18,00,00,20.80
2018,06,18,00,01,20.80
2018,06,18,00,02,20.70
2018,06,18,00,03,20.70
2018,06,18,00,04,20.70
2018,06,18,00,05,20.70
2018,06,18,00,06,20.70
2018,06,18,00,07,20.70
2018,06,18,00,08,20.70
2018,06,18,00,09,20.60
2018,06,18,00,10,20.60
2018,06,18,00,11,20.60
2018,06,18,00,12,20.70
2018,06,18,00,13,20.70
2018,06,18,00,14,20.70
2018,06,18,00,15,20.70
2018,06,18,00,16,20.70
2018,06,18,00,17,20.80
2018,06,18,00,18,20.80
2018,06,18,00,19,20.80
2018,06,18,00,20,20.80
2018,06,18,00,21,20.90
2018,06,18,00,22,20.90
2018,06,18,00,23,20.80
2018,06,18,00,24,20.80
2018,06,18,00,25,20.80
2018,06,18,00,26,20.70
2018,06,18,00,27,20.70
2018,06,18,00,28,20.60
2018,06,18,00,29,20.60
2018,06,18,00,30,20.60
2018,06,18,00,31,20.50
2018,06,18,00,32,20.50
2018,06,18,00,33,20.50
2018,06,18,00,34,20.50
2018,06,18,00,35,20.50
2018,06,18,00,36,20.40
2018,06,18,00,37,20.40
2018,06,18,00,38,20.40
2018,06,18,00,39,20.40
2018,06,18,00,40,20.40
2018,06,18,00,41,20.30
2018,06,18,00,42,20.30
2018,06,18,00,43,20.30
2018,06,18,00,44,20.30
2018,06,18,00,45,20.30
2018,06,18,00,46,20.20
2018,06,18,00,47,20.20
2018,06,18,00,48,20.20
2018,06,18,00,49,20.20
2018,06,18,00,50,20.20
2018,06,18,00,51,20.20
2018,06,18,00,52,20.20
2018,06,18,00,53,20.20
2018,06,18,00,54,20.20
2018,06,18,00,55,20.20
2018,06,18,00,56,20.20
2018,06,18,00,57,20.20
2018,06,18,00,58,20.20
2018,06,18,00,59,20.20
2018,06,18,01,00,20.20
2018,06,18,01,01,20.10
2018,06,18,01,02,20.10
2018,06,18,01,03,20.00
2018,06,18,01,04,19.90
2018,06,18,01,05,19.90
2018,06,18,01,06,19.90
2018,06,18,01,07,19.80
2018,06,18,01,08,19.80
2018,06,18,01,09,19.70
2018,06,18,01,10,19.60
2018,06,18,01,11,19.60
2018,06,18,01,12,19.50
2018,06,18,01,13,19.50
2018,06,18,01,14,19.40
2018,06,18,01,15,19.40
2018,06,18,01,16,19.30
2018,06,18,01,17,19.30
2018,06,18,01,18,19.20
2018,06,18,01,19,19.10
2018,06,18,01,20,19.10
2018,06,18,01,21,19.00
2018,06,18,01,22,18.90
2018,06,18,01,23,18.90
2018,06,18,01,24,18.90
2018,06,18,01,25,18.90
2018,06,18,01,26,18.80
2018,06,18,01,27,18.80
2018,06,18,01,28,18.70
2018,06,18,01,29,18.70
2018,06,18,01,30,18.70
2018,06,18,01,31,18.60
2018,06,18,01,32,18.60
2018,06,18,01,33,18.60
2018,06,18,01,34,18.60
2018,06,18,01,35,18.50
2018,06,18,01,36,18.50
2018,06,18,01,37,18.50
2018,06,18,01,38,18.50
2018,06,18,01,39,18.50
2018,06,18,01,40,18.50
2018,06,18,01,41,18.50
2018,06,18,01,42,18.50
2018,06,18,01,43,18.40
2018,06,18,01,44,18.40
2018,06,18,01,45,18.40
2018,06,18,01,46,18.40
2018,06,18,01,47,18.30
2018,06,18,01,48,18.30
2018,06,18,01,49,18.30
2018,06,18,01,50,18.30
2018,06,18,01,51,18.30
2018,06,18,01,52,18.20
2018,06,18,01,53,18.20
2018,06,18,01,54,18.20
2018,06,18,01,55,18.10
2018,06,18,01,56,18.10
2018,06,18,01,57,18.00
2018,06,18,01,58,17.90
2018,06,18,01,59,17.90
2018,06,18,02,00,17.90
2018,06,18,02,01,17.80
2018,06,18,02,02,17.80
2018,06,18,02,03,17.70
2018,06,18,02,04,17.70
2018,06,18,02,05,17.60
2018,06,18,02,06,17.60
2018,06,18,02,07,17.50
2018,06,18,02,08,17.50
2018,06,18,02,09,17.50
2018,06,18,02,10,17.40
2018,06,18,02,11,17.40
2018,06,18,02,12,17.30
2018,06,18,02,13,17.30
2018,06,18,02,14,17.30
2018,06,18,02,15,17.30
2018,06,18,02,16,17.30
2018,06,18,02,17,17.30
2018,06,18,02,18,17.30
2018,06,18,02,19,17.40
2018,06,18,02,20,17.60
2018,06,18,02,21,17.80
2018,06,18,02,22,18.00
2018,06,18,02,23,18.20
2018,06,18,02,24,18.40
2018,06,18,02,25,18.60
2018,06,18,02,26,18.90
2018,06,18,02,27,19.00
2018,06,18,02,28,19.10
2018,06,18,02,29,19.20
2018,06,18,02,30,19.30
2018,06,18,02,31,19.30
2018,06,18,02,32,19.40
2018,06,18,02,33,19.40
2018,06,18,02,34,19.40
2018,06,18,02,35,19.30
2018,06,18,02,36,19.30
2018,06,18,02,37,19.30
2018,06,18,02,38,19.30
2018,06,18,02,39,19.30
2018,06,18,02,40,19.30
2018,06,18,02,41,19.30
2018,06,18,02,42,19.30
2018,06,18,02,43,19.40
2018,06,18,02,44,19.40
2018,06,18,02,45,19.40
2018,06,18,02,46,19.40
2018,06,18,02,47,19.40
2018,06,18,02,48,19.40
2018,06,18,02,49,19.50
2018,06,18,02,50,19.50
2018,06,18,02,51,19.50
2018,06,18,02,52,19.50
2018,06,18,02,53,19.50
2018,06,18,02,54,19.50
2018,06,18,02,55,19.50
2018,06,18,02,56,19.50
2018,06,18,02,57,19.60
2018,06,18,02,58,19.60
2018,06,18,02,59,19.60
2018,06,18,03,00,19.70
2018,06,18,03,01,19.70
2018,06,18,03,02,19.70
2018,06,18,03,03,19.70
2018,06,18,03,04,19.70
2018,06,18,03,05,19.80
2018,06,18,03,06,19.80
2018,06,18,03,07,19.80
2018,06,18,03,08,19.80
2018,06,18,03,09,19.80
2018,06,18,03,10,19.80
2018,06,18,03,11,19.80
2018,06,18,03,12,19.80
2018,06,18,03,13,19.80
2018,06,18,03,14,19.80
2018,06,18,03,15,19.90
2018,06,18,03,16,19.90
2018,06,18,03,17,19.90
2018,06,18,03,18,19.90
2018,06,18,03,19,19.90
2018,06,18,03,20,19.90
2018,06,18,03,21,19.90
2018,06,18,03,22,19.90
2018,06,18,03,23,19.90
2018,06,18,03,24,19.90
2018,06,18,03,25,20.00
2018,06,18,03,26,20.10
2018,06,18,03,27,20.20
2018,06,18,03,28,20.20
2018,06,18,03,29,20.20
2018,06,18,03,30,20.30
2018,06,18,03,31,20.30
2018,06,18,03,32,20.40
2018,06,18,03,33,20.40
2018,06,18,03,34,20.40
2018,06,18,03,35,20.50
2018,06,18,03,36,20.50
2018,06,18,03,37,20.50
2018,06,18,03,38,20.50
2018,06,18,03,39,20.50
2018,06,18,03,40,20.50
2018,06,18,03,41,20.50
2018,06,18,03,42,20.50
2018,06,18,03,43,20.50
2018,06,18,03,44,20.50
2018,06,18,03,45,20.50
2018,06,18,03,46,20.50
2018,06,18,03,47,20.40
2018,06,18,03,48,20.40
2018,06,18,03,49,20.40
2018,06,18,03,50,20.30
2018,06,18,03,51,20.30
2018,06,18,03,52,20.30
2018,06,18,03,53,20.20
2018,06,18,03,54,20.20
2018,06,18,03,55,20.20
2018,06,18,03,56,20.10
2018,06,18,03,57,20.00
2018,06,18,03,58,19.90
2018,06,18,03,59,19.90
2018,06,18,04,00,19.90
2018,06,18,04,01,19.90
2018,06,18,04,02,19.80
2018,06,18,04,03,19.80
2018,06,18,04,04,19.80
2018,06,18,04,05,19.80
2018,06,18,04,06,19.80
2018,06,18,04,07,19.70
2018,06,18,04,08,19.70
2018,06,18,04,09,19.70
2018,06,18,04,10,19.60
2018,06,18,04,11,19.60
2018,06,18,04,12,19.50
2018,06,18,04,13,19.40
2018,06,18,04,14,19.30
2018,06,18,04,15,19.20
2018,06,18,04,16,19.00
2018,06,18,04,17,18.90
2018,06,18,04,18,18.80
2018,06,18,04,19,18.60
2018,06,18,04,20,18.60
2018,06,18,04,21,18.50
2018,06,18,04,22,18.40
2018,06,18,04,23,18.40
2018,06,18,04,24,18.40
2018,06,18,04,25,18.40
2018,06,18,04,26,18.40
2018,06,18,04,27,18.40
2018,06,18,04,28,18.40
2018,06,18,04,29,18.40
2018,06,18,04,30,18.40
2018,06,18,04,31,18.40
2018,06,18,04,32,18.40
2018,06,18,04,33,18.40
2018,06,18,04,34,18.40
2018,06,18,04,35,18.40
2018,06,18,04,36,18.40
2018,06,18,04,37,18.30
2018,06,18,04,38,18.30
2018,06,18,04,39,18.20
2018,06,18,04,40,18.20
2018,06,18,04,41,18.10
2018,06,18,04,42,18.00
2018,06,18,04,43,17.90
2018,06,18,04,44,17.90
2018,06,18,04,45,17.90
2018,06,18,04,46,17.80
2018,06,18,04,47,17.80
2018,06,18,04,48,17.80
2018,06,18,04,49,17.80
2018,06,18,04,50,17.70
2018,06,18,04,51,17.70
2018,06,18,04,52,17.70
2018,06,18,04,53,17.60
2018,06,18,04,54,17.50
2018,06,18,04,55,17.40
2018,06,18,04,56,17.20
2018,06,18,04,57,17.00
2018,06,18,04,58,16.90
2018,06,18,04,59,16.90
2018,06,18,05,00,16.80
2018,06,18,05,01,16.70
2018,06,18,05,02,16.60
2018,06,18,05,03,16.60
2018,06,18,05,04,16.50
2018,06,18,05,05,16.40
2018,06,18,05,06,16.40
2018,06,18,05,07,16.30
2018,06,18,05,08,16.30
2018,06,18,05,09,16.30
2018,06,18,05,10,16.20
2018,06,18,05,11,16.10
2018,06,18,05,12,16.10
2018,06,18,05,13,16.10
2018,06,18,05,14,16.10
2018,06,18,05,15,16.00
2018,06,18,05,16,15.90
2018,06,18,05,17,15.90
2018,06,18,05,18,15.90
2018,06,18,05,19,15.80
2018,06,18,05,20,15.80
2018,06,18,05,21,15.80
2018,06,18,05,22,15.80
2018,06,18,05,23,15.80
2018,06,18,05,24,15.80
2018,06,18,05,25,15.80
2018,06,18,05,26,15.90
2018,06,18,05,27,15.90
2018,06,18,05,28,15.90
2018,06,18,05,29,15.90
2018,06,18,05,30,15.90
2018,06,18,05,31,15.90
2018,06,18,05,32,15.90
2018,06,18,05,33,16.00
2018,06,18,05,34,16.10
2018,06,18,05,35,16.10
2018,06,18,05,36,16.10
2018,06,18,05,37,16.10
2018,06,18,05,38,16.10
2018,06,18,05,39,16.10
2018,06,18,05,40,16.10
2018,06,18,05,41,16.10
2018,06,18,05,42,16.10
2018,06,18,05,43,16.10
2018,06,18,05,44,16.20
2018,06,18,05,45,16.20
2018,06,18,05,46,16.30
2018,06,18,05,47,16.30
2018,06,18,05,48,16.30
2018,06,18,05,49,16.40
2018,06,18,05,50,16.40
2018,06,18,05,51,16.40
2018,06,18,05,52,16.40
2018,06,18,05,53,16.60
2018,06,18,05,54,16.60
2018,06,18,05,55,16.70
2018,06,18,05,56,16.80
2018,06,18,05,57,16.90
2018,06,18,05,58,17.00
2018,06,18,05,59,17.10
2018,06,18,06,00,17.20
2018,06,18,06,01,17.30
2018,06,18,06,02,17.40
2018,06,18,06,03,17.50
2018,06,18,06,04,17.50
2018,06,18,06,05,17.60
2018,06,18,06,06,17.70
2018,06,18,06,07,17.70
2018,06,18,06,08,17.80
2018,06,18,06,09,17.80
2018,06,18,06,10,17.90
2018,06,18,06,11,17.90
2018,06,18,06,12,18.00
2018,06,18,06,13,18.10
2018,06,18,06,14,18.20
2018,06,18,06,15,18.20
2018,06,18,06,16,18.20
2018,06,18,06,17,18.20
2018,06,18,06,18,18.20
2018,06,18,06,19,18.20
2018,06,18,06,20,18.10
2018,06,18,06,21,18.10
2018,06,18,06,22,18.10
2018,06,18,06,23,18.10
2018,06,18,06,24,18.00
2018,06,18,06,25,17.90
2018,06,18,06,26,17.90
2018,06,18,06,27,17.90
2018,06,18,06,28,17.90
2018,06,18,06,29,18.00
2018,06,18,06,30,18.10
2018,06,18,06,31,18.20
2018,06,18,06,32,18.30
2018,06,18,06,33,18.40
2018,06,18,06,34,18.50
2018,06,18,06,35,18.60
2018,06,18,06,36,18.60
2018,06,18,06,37,18.60
2018,06,18,06,38,18.70
2018,06,18,06,39,18.70
2018,06,18,06,40,18.80
2018,06,18,06,41,18.80
2018,06,18,06,42,18.90
2018,06,18,06,43,18.90
2018,06,18,06,44,19.00
2018,06,18,06,45,19.10
2018,06,18,06,46,19.10
2018,06,18,06,47,19.10
2018,06,18,06,48,19.20
2018,06,18,06,49,19.30
2018,06,18,06,50,19.40
2018,06,18,06,51,19.40
2018,06,18,06,52,19.40
2018,06,18,06,53,19.40
2018,06,18,06,54,19.40
2018,06,18,06,55,19.30
2018,06,18,06,56,19.30
2018,06,18,06,57,19.20
2018,06,18,06,58,19.10
2018,06,18,06,59,19.10
2018,06,18,07,00,19.10
2018,06,18,07,01,19.10
2018,06,18,07,02,19.10
2018,06,18,07,03,19.10
2018,06,18,07,04,19.10
2018,06,18,07,05,19.20
2018,06,18,07,06,19.30
2018,06,18,07,07,19.40
2018,06,18,07,08,19.50
2018,06,18,07,09,19.60
2018,06,18,07,10,19.60
2018,06,18,07,11,19.70
2018,06,18,07,12,19.70
2018,06,18,07,13,19.70
2018,06,18,07,14,19.80
2018,06,18,07,15,19.80
2018,06,18,07,16,19.80
2018,06,18,07,17,19.90
2018,06,18,07,18,19.90
2018,06,18,07,19,19.90
2018,06,18,07,20,19.90
2018,06,18,07,21,19.90
2018,06,18,07,22,19.90
2018,06,18,07,23,19.90
2018,06,18,07,24,19.90
2018,06,18,07,25,19.90
2018,06,18,07,26,19.80
2018,06,18,07,27,19.80
2018,06,18,07,28,19.80
2018,06,18,07,29,19.80
2018,06,18,07,30,19.80
2018,06,18,07,31,19.80
2018,06,18,07,32,19.90
2018,06,18,07,33,19.90
2018,06,18,07,34,20.00
2018,06,18,07,35,20.10
2018,06,18,07,36,20.20
2018,06,18,07,37,20.20
2018,06,18,07,38,20.20
2018,06,18,07,39,20.20
2018,06,18,07,40,20.20
2018,06,18,07,41,20.30
2018,06,18,07,42,20.30
2018,06,18,07,43,20.30
2018,06,18,07,44,20.30
2018,06,18,07,45,20.30
2018,06,18,07,46,20.30
2018,06,18,07,47,20.30
2018,06,18,07,48,20.30
2018,06,18,07,49,20.40
2018,06,18,07,50,20.40
2018,06,18,07,51,20.40
2018,06,18,07,52,20.50
2018,06,18,07,53,20.50
2018,06,18,07,54,20.50
2018,06,18,07,55,20.60
2018,06,18,07,56,20.60
2018,06,18,07,57,20.60
2018,06,18,07,58,20.70
2018,06,18,07,59,20.70
2018,06,18,08,00,20.70
2018,06,18,08,01,20.80
2018,06,18,08,02,20.80
2018,06,18,08,03,20.80
2018,06,18,08,04,20.80
2018,06,18,08,05,20.90
2018,06,18,08,06,20.90
2018,06,18,08,07,21.00
2018,06,18,08,08,21.00
2018,06,18,08,09,21.00
2018,06,18,08,10,21.00
2018,06,18,08,11,21.10
2018,06,18,08,12,21.10
2018,06,18,08,13,21.20
2018,06,18,08,14,21.20
2018,06,18,08,15,21.30
2018,06,18,08,16,21.30
2018,06,18,08,17,21.30
2018,06,18,08,18,21.30
2018,06,18,08,19,21.30
2018,06,18,08,20,21.30
2018,06,18,08,21,21.30
2018,06,18,08,22,21.30
2018,06,18,08,23,21.30
2018,06,18,08,24,21.30
2018,06,18,08,25,21.20
2018,06,18,08,26,21.10
2018,06,18,08,27,21.10
2018,06,18,08,28,21.10
2018,06,18,08,29,21.10
2018,06,18,08,30,21.10
2018,06,18,08,31,21.10
2018,06,18,08,32,21.30
2018,06,18,08,33,21.30
2018,06,18,08,34,21.30
2018,06,18,08,35,21.30
2018,06,18,08,36,21.30
2018,06,18,08,37,21.40
2018,06,18,08,38,21.50
2018,06,18,08,39,21.60
2018,06,18,08,40,21.60
2018,06,18,08,41,21.60
2018,06,18,08,42,21.60
2018,06,18,08,43,21.70
2018,06,18,08,44,21.70
2018,06,18,08,45,21.70
2018,06,18,08,46,21.70
2018,06,18,08,47,21.70
2018,06,18,08,48,21.70
2018,06,18,08,49,21.70
2018,06,18,08,50,21.70
2018,06,18,08,51,21.80
2018,06,18,08,52,21.90
2018,06,18,08,53,21.90
2018,06,18,08,54,21.90
2018,06,18,08,55,21.90
2018,06,18,08,56,21.90
2018,06,18,08,57,21.90
2018,06,18,08,58,22.00
2018,06,18,08,59,22.00
2018,06,18,09,00,22.10
2018,06,18,09,01,22.20
2018,06,18,09,02,22.30
2018,06,18,09,03,22.30
2018,06,18,09,04,22.40
2018,06,18,09,05,22.40
2018,06,18,09,06,22.50
2018,06,18,09,07,22.50
2018,06,18,09,08,22.50
2018,06,18,09,09,22.50
2018,06,18,09,10,22.40
2018,06,18,09,11,22.40
2018,06,18,09,12,22.30
2018,06,18,09,13,22.20
2018,06,18,09,14,22.20
2018,06,18,09,15,22.20
2018,06,18,09,16,22.10
2018,06,18,09,17,22.10
2018,06,18,09,18,22.10
2018,06,18,09,19,22.10
2018,06,18,09,20,22.20
2018,06,18,09,21,22.20
2018,06,18,09,22,22.30
2018,06,18,09,23,22.30
2018,06,18,09,24,22.40
2018,06,18,09,25,22.30
2018,06,18,09,26,22.30
2018,06,18,09,27,22.30
2018,06,18,09,28,22.30
2018,06,18,09,29,22.30
2018,06,18,09,30,22.40
2018,06,18,09,31,22.50
2018,06,18,09,32,22.50
2018,06,18,09,33,22.60
2018,06,18,09,34,22.70
2018,06,18,09,35,22.80
2018,06,18,09,36,22.90
2018,06,18,09,37,23.10
2018,06,18,09,38,23.20
2018,06,18,09,39,23.30
2018,06,18,09,40,23.30
2018,06,18,09,41,23.20
2018,06,18,09,42,23.10
2018,06,18,09,43,23.00
2018,06,18,09,44,22.90
2018,06,18,09,45,22.90
2018,06,18,09,46,22.90
2018,06,18,09,47,22.80
2018,06,18,09,48,22.80
2018,06,18,09,49,22.80
2018,06,18,09,50,22.80
2018,06,18,09,51,22.80
2018,06,18,09,52,22.90
2018,06,18,09,53,22.90
2018,06,18,09,54,23.00
2018,06,18,09,55,23.10
2018,06,18,09,56,23.20
2018,06,18,09,57,23.30
2018,06,18,09,58,23.30
2018,06,18,09,59,23.30
2018,06,18,10,00,23.30
2018,06,18,10,01,23.30
2018,06,18,10,02,23.30
2018,06,18,10,03,23.20
2018,06,18,10,04,23.10
2018,06,18,10,05,23.00
2018,06,18,10,06,22.90
2018,06,18,10,07,22.90
2018,06,18,10,08,22.90
2018,06,18,10,09,22.90
2018,06,18,10,10,22.80
2018,06,18,10,11,22.80
2018,06,18,10,12,22.80
2018,06,18,10,13,22.80
2018,06,18,10,14,22.70
2018,06,18,10,15,22.80
2018,06,18,10,16,22.80
2018,06,18,10,17,22.80
2018,06,18,10,18,22.80
2018,06,18,10,19,22.70
2018,06,18,10,20,22.60
2018,06,18,10,21,22.60
2018,06,18,10,22,22.60
2018,06,18,10,23,22.70
2018,06,18,10,24,22.70
2018,06,18,10,25,22.80
2018,06,18,10,26,22.80
2018,06,18,10,27,22.80
2018,06,18,10,28,22.80
2018,06,18,10,29,22.80
2018,06,18,10,30,22.90
2018,06,18,10,31,22.90
2018,06,18,10,32,22.90
2018,06,18,10,33,22.90
2018,06,18,10,34,22.90
2018,06,18,10,35,22.90
2018,06,18,10,36,22.80
2018,06,18,10,37,22.90
2018,06,18,10,38,22.90
2018,06,18,10,39,22.90
2018,06,18,10,40,22.90
2018,06,18,10,41,22.90
2018,06,18,10,42,23.10
2018,06,18,10,43,23.10
2018,06,18,10,44,23.20
2018,06,18,10,45,23.20
2018,06,18,10,46,23.20
2018,06,18,10,47,23.20
2018,06,18,10,48,23.30
2018,06,18,10,49,23.30
2018,06,18,10,50,23.40
2018,06,18,10,51,23.40
2018,06,18,10,52,23.50
2018,06,18,10,53,23.60
2018,06,18,10,54,23.60
2018,06,18,10,55,23.70
2018,06,18,10,56,23.70
2018,06,18,10,57,23.80
2018,06,18,10,58,23.80
2018,06,18,10,59,23.70
2018,06,18,11,00,23.60
2018,06,18,11,01,23.60
2018,06,18,11,02,23.60
2018,06,18,11,03,23.50
2018,06,18,11,04,23.60
2018,06,18,11,05,23.50
2018,06,18,11,06,23.40
2018,06,18,11,07,23.50
2018,06,18,11,08,23.60
2018,06,18,11,09,23.60
2018,06,18,11,10,23.70
2018,06,18,11,11,23.70
2018,06,18,11,12,23.70
2018,06,18,11,13,23.80
2018,06,18,11,14,23.80
2018,06,18,11,15,23.80
2018,06,18,11,16,23.80
2018,06,18,11,17,23.90
2018,06,18,11,18,23.90
2018,06,18,11,19,24.00
2018,06,18,11,20,24.10
2018,06,18,11,21,24.10
2018,06,18,11,22,24.10
2018,06,18,11,23,24.10
2018,06,18,11,24,24.10
2018,06,18,11,25,24.10
2018,06,18,11,26,24.10
2018,06,18,11,27,24.10
2018,06,18,11,28,24.20
2018,06,18,11,29,24.20
2018,06,18,11,30,24.30
2018,06,18,11,31,24.30
2018,06,18,11,32,24.30
2018,06,18,11,33,24.30
2018,06,18,11,34,24.30
2018,06,18,11,35,24.30
2018,06,18,11,36,24.30
2018,06,18,11,37,24.20
2018,06,18,11,38,24.20
2018,06,18,11,39,24.20
2018,06,18,11,40,24.20
2018,06,18,11,41,24.20
2018,06,18,11,42,24.10
2018,06,18,11,43,24.10
2018,06,18,11,44,24.10
2018,06,18,11,45,24.10
2018,06,18,11,46,24.10
2018,06,18,11,47,24.10
2018,06,18,11,48,24.10
2018,06,18,11,49,24.10
2018,06,18,11,50,24.30
2018,06,18,11,51,24.40
2018,06,18,11,52,24.40
2018,06,18,11,53,24.40
2018,06,18,11,54,24.50
2018,06,18,11,55,24.60
2018,06,18,11,56,24.60
2018,06,18,11,57,24.60
2018,06,18,11,58,24.70
2018,06,18,11,59,24.80
2018,06,18,12,00,24.70
2018,06,18,12,01,24.70
2018,06,18,12,02,24.70
2018,06,18,12,03,24.80
2018,06,18,12,04,24.80
2018,06,18,12,05,24.90
2018,06,18,12,06,24.90
2018,06,18,12,07,25.10
2018,06,18,12,08,25.20
2018,06,18,12,09,25.30
2018,06,18,12,10,25.40
2018,06,18,12,11,25.40
2018,06,18,12,12,25.40
2018,06,18,12,13,25.30
2018,06,18,12,14,25.30
2018,06,18,12,15,25.30
2018,06,18,12,16,25.20
2018,06,18,12,17,25.20
2018,06,18,12,18,25.30
2018,06,18,12,19,25.40
2018,06,18,12,20,25.50
2018,06,18,12,21,25.60
2018,06,18,12,22,25.70
2018,06,18,12,23,25.80
2018,06,18,12,24,25.90
2018,06,18,12,25,25.90
2018,06,18,12,26,25.80
2018,06,18,12,27,25.80
2018,06,18,12,28,25.70
2018,06,18,12,29,25.70
2018,06,18,12,30,25.80
2018,06,18,12,31,25.80
2018,06,18,12,32,25.80
2018,06,18,12,33,25.80
2018,06,18,12,34,25.90
2018,06,18,12,35,25.80
2018,06,18,12,36,25.80
2018,06,18,12,37,25.60
2018,06,18,12,38,25.50
2018,06,18,12,39,25.50
2018,06,18,12,40,25.60
2018,06,18,12,41,25.60
2018,06,18,12,42,25.60
2018,06,18,12,43,25.70
2018,06,18,12,44,25.80
2018,06,18,12,45,25.80
2018,06,18,12,46,25.80
2018,06,18,12,47,25.80
2018,06,18,12,48,25.90
2018,06,18,12,49,25.90
2018,06,18,12,50,25.90
2018,06,18,12,51,25.90
2018,06,18,12,52,25.90
2018,06,18,12,53,26.00
2018,06,18,12,54,26.10
2018,06,18,12,55,26.10
2018,06,18,12,56,26.20
2018,06,18,12,57,26.20
2018,06,18,12,58,26.10
2018,06,18,12,59,26.10
2018,06,18,13,00,26.20
2018,06,18,13,01,26.20
2018,06,18,13,02,26.10
2018,06,18,13,03,26.00
2018,06,18,13,04,25.90
2018,06,18,13,05,25.90
2018,06,18,13,06,25.90
2018,06,18,13,07,25.90
2018,06,18,13,08,26.00
2018,06,18,13,09,26.10
2018,06,18,13,10,26.10
2018,06,18,13,11,26.10
2018,06,18,13,12,26.20
2018,06,18,13,13,26.20
2018,06,18,13,14,26.30
2018,06,18,13,15,26.40
2018,06,18,13,16,26.40
2018,06,18,13,17,26.50
2018,06,18,13,18,26.60
2018,06,18,13,19,26.70
2018,06,18,13,20,26.70
2018,06,18,13,21,26.80
2018,06,18,13,22,26.80
2018,06,18,13,23,26.80
2018,06,18,13,24,26.80
2018,06,18,13,25,26.70
2018,06,18,13,26,26.70
2018,06,18,13,27,26.70
2018,06,18,13,28,26.70
2018,06,18,13,29,26.70
2018,06,18,13,30,26.80
2018,06,18,13,31,26.90
2018,06,18,13,32,27.00
2018,06,18,13,33,27.10
2018,06,18,13,34,27.10
2018,06,18,13,35,27.10
2018,06,18,13,36,27.10
2018,06,18,13,37,27.10
2018,06,18,13,38,27.10
2018,06,18,13,39,27.20
2018,06,18,13,40,27.30
2018,06,18,13,41,27.30
2018,06,18,13,42,27.30
2018,06,18,13,43,27.30
2018,06,18,13,44,27.30
2018,06,18,13,45,27.40
2018,06,18,13,46,27.40
2018,06,18,13,47,27.40
2018,06,18,13,48,27.50
2018,06,18,13,49,27.60
2018,06,18,13,50,27.60
2018,06,18,13,51,27.50
2018,06,18,13,52,27.50
2018,06,18,13,53,27.60
2018,06,18,13,54,27.60
2018,06,18,13,55,27.70
2018,06,18,13,56,27.70
2018,06,18,13,57,27.70
2018,06,18,13,58,27.60
2018,06,18,13,59,27.60
2018,06,18,14,00,27.70
2018,06,18,14,01,27.80
2018,06,18,14,02,27.80
2018,06,18,14,03,27.90
2018,06,18,14,04,27.90
2018,06,18,14,05,27.90
2018,06,18,14,06,27.90
2018,06,18,14,07,27.90
2018,06,18,14,08,27.80
2018,06,18,14,09,27.80
2018,06,18,14,10,27.80
2018,06,18,14,11,27.90
2018,06,18,14,12,27.90
2018,06,18,14,13,27.90
2018,06,18,14,14,27.80
2018,06,18,14,15,27.70
2018,06,18,14,16,27.70
2018,06,18,14,17,27.70
2018,06,18,14,18,27.70
2018,06,18,14,19,27.70
2018,06,18,14,20,27.70
2018,06,18,14,21,27.80
2018,06,18,14,22,27.80
2018,06,18,14,23,27.90
2018,06,18,14,24,28.00
2018,06,18,14,25,28.00
2018,06,18,14,26,28.00
2018,06,18,14,27,28.00
2018,06,18,14,28,28.00
2018,06,18,14,29,28.00
2018,06,18,14,30,27.90
2018,06,18,14,31,28.00
2018,06,18,14,32,28.00
2018,06,18,14,33,28.10
2018,06,18,14,34,28.20
2018,06,18,14,35,28.30
2018,06,18,14,36,28.30
2018,06,18,14,37,28.30
2018,06,18,14,38,28.30
2018,06,18,14,39,28.30
2018,06,18,14,40,28.40
2018,06,18,14,41,28.40
2018,06,18,14,42,28.40
2018,06,18,14,43,28.40
2018,06,18,14,44,28.60
2018,06,18,14,45,28.70
2018,06,18,14,46,28.80
2018,06,18,14,47,28.90
2018,06,18,14,48,28.90
2018,06,18,14,49,28.90
2018,06,18,14,50,28.90
2018,06,18,14,51,28.80
2018,06,18,14,52,28.70
2018,06,18,14,53,28.70
2018,06,18,14,54,28.70
2018,06,18,14,55,28.80
2018,06,18,14,56,28.80
2018,06,18,14,57,28.70
2018,06,18,14,58,28.60
2018,06,18,14,59,28.60
2018,06,18,15,00,28.70
2018,06,18,15,01,28.70
2018,06,18,15,02,28.80
2018,06,18,15,03,28.90
2018,06,18,15,04,29.00
2018,06,18,15,05,29.10
2018,06,18,15,06,29.20
2018,06,18,15,07,29.30
2018,06,18,15,08,29.40
2018,06,18,15,09,29.50
2018,06,18,15,10,29.50
2018,06,18,15,11,29.60
2018,06,18,15,12,29.60
2018,06,18,15,13,29.60
2018,06,18,15,14,29.50
2018,06,18,15,15,29.40
2018,06,18,15,16,29.40
2018,06,18,15,17,29.30
2018,06,18,15,18,29.20
2018,06,18,15,19,29.10
2018,06,18,15,20,29.10
2018,06,18,15,21,29.00
2018,06,18,15,22,28.90
2018,06,18,15,23,28.90
2018,06,18,15,24,28.90
2018,06,18,15,25,28.90
2018,06,18,15,26,28.90
2018,06,18,15,27,28.90
2018,06,18,15,28,28.90
2018,06,18,15,29,29.10
2018,06,18,15,30,29.10
2018,06,18,15,31,29.10
2018,06,18,15,32,29.20
2018,06,18,15,33,29.30
2018,06,18,15,34,29.30
2018,06,18,15,35,29.10
2018,06,18,15,36,29.00
2018,06,18,15,37,28.80
2018,06,18,15,38,28.80
2018,06,18,15,39,28.70
2018,06,18,15,40,28.70
2018,06,18,15,41,28.70
2018,06,18,15,42,28.80
2018,06,18,15,43,28.70
2018,06,18,15,44,28.60
2018,06,18,15,45,28.60
2018,06,18,15,46,28.60
2018,06,18,15,47,28.60
2018,06,18,15,48,28.50
2018,06,18,15,49,28.40
2018,06,18,15,50,28.40
2018,06,18,15,51,28.50
2018,06,18,15,52,28.60
2018,06,18,15,53,28.70
2018,06,18,15,54,28.70
2018,06,18,15,55,28.70
2018,06,18,15,56,28.70
2018,06,18,15,57,28.80
2018,06,18,15,58,28.80
2018,06,18,15,59,28.90
2018,06,18,16,00,28.90
2018,06,18,16,01,29.00
2018,06,18,16,02,29.10
2018,06,18,16,03,29.20
2018,06,18,16,04,29.30
2018,06,18,16,05,29.30
2018,06,18,16,06,29.40
2018,06,18,16,07,29.50
2018,06,18,16,08,29.60
2018,06,18,16,09,29.70
2018,06,18,16,10,29.80
2018,06,18,16,11,29.80
2018,06,18,16,12,29.80
2018,06,18,16,13,29.80
2018,06,18,16,14,29.90
2018,06,18,16,15,29.90
2018,06,18,16,16,29.80
2018,06,18,16,17,29.80
2018,06,18,16,18,29.80
2018,06,18,16,19,29.80
2018,06,18,16,20,29.80
2018,06,18,16,21,29.80
2018,06,18,16,22,29.80
2018,06,18,16,23,29.80
2018,06,18,16,24,29.80
2018,06,18,16,25,29.80
2018,06,18,16,26,29.90
2018,06,18,16,27,30.00
2018,06,18,16,28,30.10
2018,06,18,16,29,30.10
2018,06,18,16,30,30.30
2018,06,18,16,31,30.30
2018,06,18,16,32,30.40
2018,06,18,16,33,30.50
2018,06,18,16,34,30.60
2018,06,18,16,35,30.60
2018,06,18,16,36,30.70
2018,06,18,16,37,30.60
2018,06,18,16,38,30.40
2018,06,18,16,39,30.30
2018,06,18,16,40,29.90
2018,06,18,16,41,29.10
2018,06,18,16,42,28.30
2018,06,18,16,43,27.70
2018,06,18,16,44,27.30
2018,06,18,16,45,26.90
2018,06,18,16,46,26.50
2018,06,18,16,47,26.10
2018,06,18,16,48,25.90
2018,06,18,16,49,25.80
2018,06,18,16,50,25.70
2018,06,18,16,51,25.50
2018,06,18,16,52,25.40
2018,06,18,16,53,25.30
2018,06,18,16,54,25.30
2018,06,18,16,55,25.40
2018,06,18,16,56,25.60
2018,06,18,16,57,25.90
2018,06,18,16,58,26.30
2018,06,18,16,59,26.60
2018,06,18,17,00,26.90
2018,06,18,17,01,27.30
2018,06,18,17,02,27.80
2018,06,18,17,03,28.30
2018,06,18,17,04,28.70
2018,06,18,17,05,29.00
2018,06,18,17,06,29.20
2018,06,18,17,07,29.40
2018,06,18,17,08,29.60
2018,06,18,17,09,29.70
2018,06,18,17,10,29.80
2018,06,18,17,11,29.90
2018,06,18,17,12,30.00
2018,06,18,17,13,30.10
2018,06,18,17,14,30.20
2018,06,18,17,15,30.30
2018,06,18,17,16,30.50
2018,06,18,17,17,30.60
2018,06,18,17,18,30.70
2018,06,18,17,19,30.70